Weather History for Milton, FL

Change the Weather History Date:

Thursday, October 25, 2012

  Actual Average (KNSE) Record (KNSE)
Temperature  
Mean Temperature 72 °F -  
Max Temperature 84 °F 75 °F 86 °F (2010)
Min Temperature 61 °F 56 °F 37 °F (2005)
Cooling Degree Days 8    
Growing Degree Days 22 (Base 50)    
Moisture  
Dew Point 60 °F    
Average Humidity 71    
Maximum Humidity 93    
Minimum Humidity 41    
Precipitation  
Precipitation 0.00 in - - ()
Sea Level Pressure  
Sea Level Pressure 29.94 in    
Wind  
Wind Speed 5 mph (NE)    
Max Wind Speed 9 mph    
Max Gust Speed -    
Visibility 10 miles    
Events      
Averages and records for this station are not official NWS values.
T = Trace of Precipitation, MM = Missing Value Source: NWS Daily Summary

Daily Weather History Graph

Daily Weather History Graph

Search for Another Location

Airport:

Trip Planner

Search our weather history database for the weather conditions in past years. The results will help you decide how hot, cold, wet, or windy it might be!

Date:

Astronomy

Oct. 25, 2012 Rise Set
Actual Time 6:57 AM CDT 6:05 PM CDT
Civil Twilight 6:33 AM CDT 6:30 PM CDT
Nautical Twilight 6:05 AM CDT 6:58 PM CDT
Astronomical Twilight 5:36 AM CDT 7:26 PM CDT
Moon 3:39 PM CDT (10/25) 3:08 AM CDT (10/25)
Length of Visible Light 11h 57m
Length of Day
11h 07m
Waxing Gibbous, 84% of the Moon is Illuminated
Oct 25
Waxing Gibbous
Oct 29
Full
Nov 6
Last Quarter
Nov 13
New
Nov 20
First Quarter

Hourly Weather History & Observations

Time (CDT) Temp. Heat Index Dew Point Humidity Pressure Visibility Wind Dir Wind Speed Gust Speed Precip Events Conditions
12:56 AM 61.0 °F - 57.0 °F 87% 29.97 in 10.0 mi NE 5.8 mph - N/A   Clear
1:56 AM 63.0 °F - 57.0 °F 81% 29.95 in 10.0 mi NE 4.6 mph - N/A   Clear
2:56 AM 63.0 °F - 57.9 °F 84% 29.94 in 10.0 mi ENE 9.2 mph - N/A   Clear
3:56 AM 63.0 °F - 57.0 °F 81% 29.93 in 10.0 mi ENE 6.9 mph - N/A   Clear
4:56 AM 62.1 °F - 57.9 °F 86% 29.94 in 10.0 mi ENE 5.8 mph - N/A   Clear
5:56 AM 61.0 °F - 57.9 °F 90% 29.95 in 10.0 mi NE 4.6 mph - N/A   Clear
6:56 AM 62.1 °F - 57.9 °F 86% 29.96 in 10.0 mi NE 6.9 mph - N/A   Clear
8:56 AM 68.0 °F - 62.1 °F 81% 29.98 in 10.0 mi East 9.2 mph - N/A   Clear
9:56 AM 75.0 °F - 64.0 °F 69% 29.98 in 10.0 mi East 6.9 mph - N/A   Clear
10:56 AM 78.1 °F - 64.0 °F 62% 29.98 in 10.0 mi ESE 9.2 mph - N/A   Clear
11:56 AM 81.0 °F 81.7 °F 61.0 °F 50% 29.96 in 10.0 mi ESE 8.1 mph - N/A   Clear
12:56 PM 84.0 °F 84.5 °F 62.1 °F 47% 29.94 in 10.0 mi Variable 3.5 mph - N/A   Scattered Clouds
1:56 PM 84.0 °F 83.8 °F 59.0 °F 43% 29.91 in 10.0 mi Calm Calm - N/A   Mostly Cloudy
2:56 PM 84.9 °F 84.4 °F 59.0 °F 41% 29.90 in 10.0 mi NNE 5.8 mph - N/A   Mostly Cloudy
3:56 PM 84.0 °F 83.5 °F 57.9 °F 41% 29.90 in 10.0 mi Calm Calm - N/A   Partly Cloudy
4:56 PM 82.9 °F 82.8 °F 59.0 °F 44% 29.90 in 10.0 mi Variable 4.6 mph - N/A   Clear
5:56 PM 77.0 °F - 63.0 °F 62% 29.91 in 10.0 mi Calm Calm - N/A   Clear
6:56 PM 73.9 °F - 62.1 °F 66% 29.92 in 10.0 mi Calm Calm - N/A   Clear
7:56 PM 70.0 °F - 62.1 °F 76% 29.92 in 10.0 mi NNW 3.5 mph - N/A   Clear
8:56 PM 64.9 °F - 62.1 °F 90% 29.92 in 10.0 mi Calm Calm - N/A   Clear
9:56 PM 64.0 °F - 61.0 °F 90% 29.93 in 10.0 mi Calm Calm - N/A   Clear
10:56 PM 63.0 °F - 61.0 °F 93% 29.92 in 10.0 mi NW 3.5 mph - N/A   Clear
11:56 PM 61.0 °F - 59.0 °F 93% 29.91 in 10.0 mi NNW 3.5 mph - N/A   Clear